Time,TemperatureF,DewpointF,PressureIn,WindDirection,WindDirectionDegrees,WindSpeedMPH,WindSpeedGustMPH,Humidity,HourlyPrecipIn,Conditions,Clouds,dailyrainin,SoftwareType,DateUTC
2013-02-20 00:02:00,10.0,-99.9,-100.00,NW,323,11.0,16.0,-999,0.00,,,0.00,,2013-02-20 06:02:00,
2013-02-20 00:12:00,10.0,-99.9,-100.00,NW,323,11.0,16.0,-999,0.00,,,0.00,,2013-02-20 06:12:00,
2013-02-20 00:22:00,10.0,-99.9,-100.00,NW,323,11.0,16.0,-999,0.00,,,0.00,,2013-02-20 06:22:00,
2013-02-20 00:30:00,9.0,-99.9,-100.00,NW,320,10.0,13.0,-999,0.00,,,-99.99,,2013-02-20 06:30:00,
2013-02-20 00:32:00,9.0,-99.9,-100.00,NW,319,8.0,11.0,-999,0.00,,,0.00,,2013-02-20 06:32:00,
2013-02-20 00:42:00,9.0,-99.9,-100.00,NW,319,8.0,11.0,-999,0.00,,,0.00,,2013-02-20 06:42:00,
2013-02-20 00:52:00,9.0,-99.9,-100.00,NW,319,8.0,11.0,-999,0.00,,,0.00,,2013-02-20 06:52:00,
2013-02-20 01:02:00,9.0,-99.9,-100.00,NW,320,10.0,13.0,-999,0.00,,,-99.99,,2013-02-20 07:02:00,
2013-02-20 01:11:00,9.0,-99.9,-100.00,NW,320,10.0,13.0,-999,0.00,,,-99.99,,2013-02-20 07:11:00,
2013-02-20 01:22:00,9.0,-99.9,-100.00,NW,320,10.0,13.0,-999,0.00,,,-99.99,,2013-02-20 07:22:00,
2013-02-20 01:30:00,8.0,-99.9,-100.00,WNW,303,6.0,12.0,-999,0.00,,,0.00,,2013-02-20 07:30:00,
2013-02-20 02:05:00,8.0,-99.9,-100.00,WNW,303,6.0,12.0,-999,0.00,,,0.00,,2013-02-20 08:05:00,
2013-02-20 02:11:00,8.0,-99.9,-100.00,WNW,303,6.0,12.0,-999,0.00,,,0.00,,2013-02-20 08:11:00,
2013-02-20 02:22:00,8.0,-99.9,-100.00,WNW,303,6.0,12.0,-999,0.00,,,0.00,,2013-02-20 08:22:00,
2013-02-20 03:32:00,7.0,-99.9,-100.00,WNW,292,7.0,10.0,-999,0.00,,,0.00,,2013-02-20 09:32:00,
2013-02-20 03:42:00,7.0,-99.9,-100.00,WNW,292,7.0,10.0,-999,0.00,,,0.00,,2013-02-20 09:42:00,
2013-02-20 03:52:00,7.0,-99.9,-100.00,WNW,292,7.0,10.0,-999,0.00,,,0.00,,2013-02-20 09:52:00,
2013-02-20 04:01:00,7.0,-99.9,-100.00,NW,310,7.0,11.0,-999,0.00,,,0.00,,2013-02-20 10:01:00,
2013-02-20 04:12:00,7.0,-99.9,-100.00,NW,310,7.0,11.0,-999,0.00,,,0.00,,2013-02-20 10:12:00,
2013-02-20 04:22:00,7.0,-99.9,-100.00,NW,310,7.0,11.0,-999,0.00,,,0.00,,2013-02-20 10:22:00,
2013-02-20 04:32:00,6.0,-99.9,-100.00,NW,308,6.0,9.0,-999,0.00,,,0.00,,2013-02-20 10:32:00,
2013-02-20 04:42:00,6.0,-99.9,-100.00,NW,308,6.0,9.0,-999,0.00,,,0.00,,2013-02-20 10:42:00,
2013-02-20 04:52:00,6.0,-99.9,-100.00,NW,308,6.0,9.0,-999,0.00,,,0.00,,2013-02-20 10:52:00,
2013-02-20 05:02:00,6.0,-99.9,-100.00,NW,308,7.0,11.0,-999,0.00,,,0.00,,2013-02-20 11:02:00,
2013-02-20 05:11:00,6.0,-99.9,-100.00,NW,308,7.0,11.0,-999,0.00,,,0.00,,2013-02-20 11:11:00,
2013-02-20 05:22:00,6.0,-99.9,-100.00,NW,308,7.0,11.0,-999,0.00,,,0.00,,2013-02-20 11:22:00,
2013-02-20 05:32:00,5.0,-99.9,-100.00,NW,309,7.0,11.0,-999,0.00,,,0.00,,2013-02-20 11:32:00,
2013-02-20 05:42:00,5.0,-99.9,-100.00,NW,309,7.0,11.0,-999,0.00,,,0.00,,2013-02-20 11:42:00,
2013-02-20 05:52:00,5.0,-99.9,-100.00,NW,309,7.0,11.0,-999,0.00,,,0.00,,2013-02-20 11:52:00,
2013-02-20 06:02:00,5.0,-99.9,-100.00,NW,312,7.0,9.0,-999,0.00,,,0.00,,2013-02-20 12:02:00,
2013-02-20 06:12:00,5.0,-99.9,-100.00,NW,312,7.0,9.0,-999,0.00,,,0.00,,2013-02-20 12:12:00,
2013-02-20 06:22:00,5.0,-99.9,-100.00,NW,312,7.0,9.0,-999,0.00,,,0.00,,2013-02-20 12:22:00,
2013-02-20 06:30:00,5.0,-99.9,-100.00,NNW,340,8.0,10.0,-999,0.00,,,0.00,,2013-02-20 12:30:00,
2013-02-20 06:32:00,5.0,-99.9,-100.00,NNW,327,9.0,12.0,-999,0.00,,,0.00,,2013-02-20 12:32:00,
2013-02-20 06:42:00,5.0,-99.9,-100.00,NNW,327,9.0,12.0,-999,0.00,,,0.00,,2013-02-20 12:42:00,
2013-02-20 06:53:00,5.0,-99.9,-100.00,NNW,327,9.0,12.0,-999,0.00,,,0.00,,2013-02-20 12:53:00,
2013-02-20 07:02:00,5.0,-99.9,-100.00,NNW,340,8.0,10.0,-999,0.00,,,0.00,,2013-02-20 13:02:00,
2013-02-20 07:12:00,5.0,-99.9,-100.00,NNW,340,8.0,10.0,-999,0.00,,,0.00,,2013-02-20 13:12:00,
2013-02-20 07:22:00,5.0,-99.9,-100.00,NNW,340,8.0,10.0,-999,0.00,,,0.00,,2013-02-20 13:22:00,
2013-02-20 08:01:00,6.0,-99.9,-100.00,North,355,6.0,9.0,-999,0.00,,,0.00,,2013-02-20 14:01:00,
2013-02-20 08:11:00,6.0,-99.9,-100.00,North,355,6.0,9.0,-999,0.00,,,0.00,,2013-02-20 14:11:00,
2013-02-20 08:22:00,6.0,-99.9,-100.00,North,355,6.0,9.0,-999,0.00,,,0.00,,2013-02-20 14:22:00,
2013-02-20 08:32:00,7.0,-99.9,-100.00,NNW,347,4.0,7.0,-999,0.00,,,0.00,,2013-02-20 14:32:00,
2013-02-20 08:42:00,7.0,-99.9,-100.00,NNW,347,4.0,7.0,-999,0.00,,,0.00,,2013-02-20 14:42:00,
2013-02-20 08:52:00,7.0,-99.9,-100.00,NNW,347,4.0,7.0,-999,0.00,,,0.00,,2013-02-20 14:52:00,
2013-02-20 09:02:00,8.0,-99.9,-100.00,NW,322,5.0,8.0,-999,0.00,,,0.00,,2013-02-20 15:02:00,
2013-02-20 09:12:00,8.0,-99.9,-100.00,NW,322,5.0,8.0,-999,0.00,,,0.00,,2013-02-20 15:12:00,
2013-02-20 09:22:00,8.0,-99.9,-100.00,NW,322,5.0,8.0,-999,0.00,,,0.00,,2013-02-20 15:22:00,
2013-02-20 09:32:00,9.0,-99.9,-100.00,NW,324,3.0,6.0,-999,0.00,,,0.00,,2013-02-20 15:32:00,
2013-02-20 09:42:00,9.0,-99.9,-100.00,NW,324,3.0,6.0,-999,0.00,,,0.00,,2013-02-20 15:42:00,
2013-02-20 09:52:00,9.0,-99.9,-100.00,NW,324,3.0,6.0,-999,0.00,,,0.00,,2013-02-20 15:52:00,
2013-02-20 10:01:00,11.0,-99.9,-100.00,NNW,328,4.0,5.0,-999,0.00,,,0.00,,2013-02-20 16:01:00,
2013-02-20 10:12:00,11.0,-99.9,-100.00,NNW,328,4.0,5.0,-999,0.00,,,0.00,,2013-02-20 16:12:00,
2013-02-20 10:22:00,11.0,-99.9,-100.00,NNW,328,4.0,5.0,-999,0.00,,,0.00,,2013-02-20 16:22:00,
2013-02-20 10:32:00,12.0,-99.9,-100.00,NW,326,5.0,8.0,-999,0.00,,,0.00,,2013-02-20 16:32:00,
2013-02-20 10:42:00,12.0,-99.9,-100.00,NW,326,5.0,8.0,-999,0.00,,,0.00,,2013-02-20 16:42:00,
2013-02-20 10:52:00,12.0,-99.9,-100.00,NW,326,5.0,8.0,-999,0.00,,,0.00,,2013-02-20 16:52:00,
2013-02-20 11:01:00,14.0,-99.9,-100.00,NW,325,3.0,4.0,-999,0.00,,,0.00,,2013-02-20 17:01:00,
2013-02-20 11:12:00,14.0,-99.9,-100.00,NW,325,3.0,4.0,-999,0.00,,,0.00,,2013-02-20 17:12:00,
2013-02-20 11:22:00,14.0,-99.9,-100.00,NW,325,3.0,4.0,-999,0.00,,,0.00,,2013-02-20 17:22:00,
2013-02-20 11:32:00,16.0,-99.9,-100.00,WSW,251,1.0,4.0,-999,0.00,,,0.00,,2013-02-20 17:32:00,
2013-02-20 11:42:00,16.0,-99.9,-100.00,WSW,251,1.0,4.0,-999,0.00,,,0.00,,2013-02-20 17:42:00,
2013-02-20 11:52:00,16.0,-99.9,-100.00,WSW,251,1.0,4.0,-999,0.00,,,0.00,,2013-02-20 17:52:00,
2013-02-20 12:02:00,17.0,-99.9,-100.00,WSW,244,3.0,5.0,-999,0.00,,,0.00,,2013-02-20 18:02:00,
2013-02-20 12:11:00,17.0,-99.9,-100.00,WSW,244,3.0,5.0,-999,0.00,,,0.00,,2013-02-20 18:11:00,
2013-02-20 12:22:00,17.0,-99.9,-100.00,WSW,244,3.0,5.0,-999,0.00,,,0.00,,2013-02-20 18:22:00,
2013-02-20 12:30:00,20.0,-99.9,-100.00,WSW,256,4.0,7.0,-999,0.00,,,0.00,,2013-02-20 18:30:00,
2013-02-20 12:32:00,19.0,-99.9,-100.00,WSW,239,3.0,6.0,-999,0.00,,,0.00,,2013-02-20 18:32:00,
2013-02-20 12:42:00,19.0,-99.9,-100.00,WSW,239,3.0,6.0,-999,0.00,,,0.00,,2013-02-20 18:42:00,
2013-02-20 12:52:00,19.0,-99.9,-100.00,WSW,239,3.0,6.0,-999,0.00,,,0.00,,2013-02-20 18:52:00,
2013-02-20 13:02:00,20.0,-99.9,-100.00,WSW,256,4.0,7.0,-999,0.00,,,0.00,,2013-02-20 19:02:00,
2013-02-20 13:12:00,20.0,-99.9,-100.00,WSW,256,4.0,7.0,-999,0.00,,,0.00,,2013-02-20 19:12:00,
2013-02-20 13:21:00,20.0,-99.9,-100.00,WSW,256,4.0,7.0,-999,0.00,,,0.00,,2013-02-20 19:21:00,
2013-02-20 14:01:00,21.0,-99.9,-100.00,NNW,346,4.0,9.0,-999,0.00,,,0.00,,2013-02-20 20:01:00,
2013-02-20 14:11:00,21.0,-99.9,-100.00,NNW,346,4.0,9.0,-999,0.00,,,0.00,,2013-02-20 20:11:00,
2013-02-20 14:21:00,21.0,-99.9,-100.00,NNW,346,4.0,9.0,-999,0.00,,,0.00,,2013-02-20 20:21:00,
2013-02-20 14:30:00,23.0,-99.9,-100.00,North,3,5.0,8.0,-999,0.00,,,0.00,,2013-02-20 20:30:00,
2013-02-20 14:31:00,22.0,-99.9,-100.00,North,351,5.0,8.0,-999,0.00,,,0.00,,2013-02-20 20:31:00,
2013-02-20 14:41:00,22.0,-99.9,-100.00,North,351,5.0,8.0,-999,0.00,,,0.00,,2013-02-20 20:41:00,
2013-02-20 14:52:00,22.0,-99.9,-100.00,North,351,5.0,8.0,-999,0.00,,,0.00,,2013-02-20 20:52:00,
2013-02-20 15:00:00,24.0,-99.9,-100.00,NNW,334,7.0,9.0,-999,0.00,,,0.00,,2013-02-20 21:00:00,
2013-02-20 15:02:00,23.0,-99.9,-100.00,North,3,5.0,8.0,-999,0.00,,,0.00,,2013-02-20 21:02:00,
2013-02-20 15:11:00,23.0,-99.9,-100.00,North,3,5.0,8.0,-999,0.00,,,0.00,,2013-02-20 21:11:00,
2013-02-20 15:21:00,23.0,-99.9,-100.00,North,3,5.0,8.0,-999,0.00,,,0.00,,2013-02-20 21:21:00,
2013-02-20 15:42:00,24.0,-99.9,-100.00,NNW,334,7.0,9.0,-999,0.00,,,0.00,,2013-02-20 21:42:00,
2013-02-20 15:52:00,24.0,-99.9,-100.00,NNW,334,7.0,9.0,-999,0.00,,,0.00,,2013-02-20 21:52:00,
2013-02-20 16:30:00,25.0,-99.9,-100.00,NNW,340,1.0,3.0,-999,-99.99,,,0.00,,2013-02-20 22:30:00,
2013-02-20 17:00:00,25.0,-99.9,-100.00,North,357,3.0,4.0,-999,0.00,,,0.00,,2013-02-20 23:00:00,
2013-02-20 17:53:00,25.0,-99.9,-100.00,North,357,3.0,4.0,-999,0.00,,,0.00,,2013-02-20 23:53:00,
2013-02-20 18:11:00,25.0,-99.9,-100.00,NNE,13,5.0,7.0,-999,0.00,,,0.00,,2013-02-21 00:11:00,
2013-02-20 18:22:00,25.0,-99.9,-100.00,NNE,13,5.0,7.0,-999,0.00,,,0.00,,2013-02-21 00:22:00,
2013-02-20 18:32:00,25.0,-99.9,-100.00,NNE,33,5.0,6.0,-999,0.00,,,0.00,,2013-02-21 00:32:00,
2013-02-20 18:42:00,25.0,-99.9,-100.00,NNE,33,5.0,6.0,-999,0.00,,,0.00,,2013-02-21 00:42:00,
2013-02-20 18:53:00,25.0,-99.9,-100.00,NNE,33,5.0,6.0,-999,0.00,,,0.00,,2013-02-21 00:53:00,
2013-02-20 19:01:00,24.0,-99.9,-100.00,NNE,31,5.0,5.0,-999,0.00,,,0.00,,2013-02-21 01:01:00,
2013-02-20 19:12:00,24.0,-99.9,-100.00,NNE,31,5.0,5.0,-999,0.00,,,0.00,,2013-02-21 01:12:00,
2013-02-20 19:22:00,24.0,-99.9,-100.00,NNE,31,5.0,5.0,-999,0.00,,,0.00,,2013-02-21 01:22:00,
2013-02-20 19:30:00,24.0,-99.9,-100.00,NE,38,5.0,7.0,-999,0.00,,,0.00,,2013-02-21 01:30:00,
2013-02-20 19:32:00,24.0,-99.9,-100.00,NNE,30,4.0,5.0,-999,0.00,,,0.00,,2013-02-21 01:32:00,
2013-02-20 19:42:00,24.0,-99.9,-100.00,NNE,30,4.0,5.0,-999,0.00,,,0.00,,2013-02-21 01:42:00,
2013-02-20 19:52:00,24.0,-99.9,-100.00,NNE,30,4.0,5.0,-999,0.00,,,0.00,,2013-02-21 01:52:00,
2013-02-20 20:02:00,24.0,-99.9,-100.00,NE,38,5.0,7.0,-999,0.00,,,0.00,,2013-02-21 02:02:00,
2013-02-20 20:11:00,24.0,-99.9,-100.00,NE,38,5.0,7.0,-999,0.00,,,0.00,,2013-02-21 02:11:00,
2013-02-20 20:22:00,24.0,-99.9,-100.00,NE,38,5.0,7.0,-999,0.00,,,0.00,,2013-02-21 02:22:00,
2013-02-20 21:02:00,23.0,-99.9,-100.00,NE,38,6.0,7.0,-999,0.00,,,0.00,,2013-02-21 03:02:00,
2013-02-20 21:12:00,23.0,-99.9,-100.00,NE,38,6.0,7.0,-999,0.00,,,0.00,,2013-02-21 03:12:00,
2013-02-20 21:22:00,23.0,-99.9,-100.00,NE,38,6.0,7.0,-999,0.00,,,0.00,,2013-02-21 03:22:00,
2013-02-20 21:32:00,23.0,-99.9,-100.00,NE,45,8.0,8.0,-999,0.00,,,0.00,,2013-02-21 03:32:00,
2013-02-20 21:42:00,23.0,-99.9,-100.00,NE,45,8.0,8.0,-999,0.00,,,0.00,,2013-02-21 03:42:00,
2013-02-20 21:52:00,23.0,-99.9,-100.00,NE,45,8.0,8.0,-999,0.00,,,0.00,,2013-02-21 03:52:00,
2013-02-20 22:00:00,22.0,-99.9,-100.00,East,100,4.0,7.0,-999,0.00,,,0.00,,2013-02-21 04:00:00,
2013-02-20 22:01:00,23.0,-99.9,-100.00,NE,53,5.0,7.0,-999,0.00,,,0.00,,2013-02-21 04:01:00,
2013-02-20 22:11:00,23.0,-99.9,-100.00,NE,53,5.0,7.0,-999,0.00,,,0.00,,2013-02-21 04:11:00,
2013-02-20 22:22:00,23.0,-99.9,-100.00,NE,53,5.0,7.0,-999,0.00,,,0.00,,2013-02-21 04:22:00,
2013-02-20 22:30:00,21.0,-99.9,-100.00,East,83,8.0,10.0,-999,0.00,,,0.00,,2013-02-21 04:30:00,
2013-02-20 22:32:00,22.0,-99.9,-100.00,East,100,4.0,7.0,-999,0.00,,,0.00,,2013-02-21 04:32:00,
2013-02-20 22:42:00,22.0,-99.9,-100.00,East,100,4.0,7.0,-999,0.00,,,0.00,,2013-02-21 04:42:00,
2013-02-20 22:52:00,22.0,-99.9,-100.00,East,100,4.0,7.0,-999,0.00,,,0.00,,2013-02-21 04:52:00,
2013-02-20 23:12:00,21.0,-99.9,-100.00,East,83,8.0,10.0,-999,0.00,,,0.00,,2013-02-21 05:12:00,
2013-02-20 23:22:00,21.0,-99.9,-100.00,East,83,8.0,10.0,-999,0.00,,,0.00,,2013-02-21 05:22:00,